CW0630 Weather Reports


Display with metric or nautical units.
time (UTC)temp
F
wind
direction
speed
MPH
gust
MPH
rain 1hr
in
rain 24hr
in
rain mn
in
humidity
%
barometer
mb
20260901001015 84 355 0.0 0.0 0.00 0.00 0.00 73 1018.3
20260831231011 84 360 2.0 2.0 0.00 0.00 0.00 71 1018.2
20260831221026 86 355 0.0 2.0 0.00 0.00 0.00 64 1018.2
20260831211051 90 67 2.0 2.0 0.00 0.00 0.00 55 1017.8
20260831201020 91 360 5.0 6.0 0.00 0.00 0.00 55 1018.0
20260831191019 91 15 8.0 8.0 0.00 0.00 0.00 58 1018.3
20260831181026 92 37 4.0 4.0 0.00 0.00 0.00 56 1018.8
20260831171017 92 287 0.0 1.0 0.00 0.00 0.00 64 1019.3
20260831161019 90 110 0.0 0.0 0.00 0.00 0.00 62 1019.7
20260831151026 87 101 0.0 2.0 0.00 0.00 0.00 68 1019.8
20260831141027 86 275 0.0 0.0 0.00 0.00 0.00 70 1019.8
20260831131019 84 235 0.0 0.0 0.00 0.00 0.00 75 1019.7
20260831121023 78 197 0.0 0.0 0.00 0.00 0.00 83 1019.4
20260831111011 72 188 0.0 0.0 0.00 0.00 0.00 91 1019.1
20260831101025 72 189 0.0 0.0 0.00 0.00 0.00 90 1018.8
20260831091025 74 189 0.0 0.0 0.00 0.00 0.00 87 1018.7
20260831081018 76 185 3.0 3.0 0.00 0.00 0.00 84 1018.7
20260831071015 75 212 0.0 1.0 0.00 0.00 0.00 85 1018.8
20260831061032 75 203 0.0 2.0 0.00 0.00 0.00 85 1019.1
20260831051025 76 187 0.0 0.0 0.00 0.00 0.00 85 1019.5
20260831041021 78 187 0.0 0.0 0.00 0.00 0.00 81 1019.7
20260831031012 79 186 1.0 1.0 0.00 0.00 0.00 78 1019.8
20260831021028 78 189 0.0 0.0 0.00 0.00 0.00 80 1019.8
20260831011015 78 189 0.0 0.0 0.00 0.00 0.00 80 1020.0